Regional Weather Roundup
Issued by NWS

Home | Current Version | Previous Version | Text Only | Print | Product List | Glossary Off
Versions: 1 2 3 4 5 6 7 8 9 10 11 12 13 14 15 16 17 18 19 20 21 22 23 24 25 26 27 28 29 30 31 32 33 34 35 36 37 38 39 40 41 42 43 44 45 46 47 48 49 50

590
ASUS43 KMPX 191801
RWRMN
WEATHER ROUNDUP FOR MINNESOTA
NATIONAL WEATHER SERVICE TWIN CITIES/CHANHASSEN MN
1200 PM CST MON FEB 19 2018


NOTE: "FAIR" INDICATES FEW OR NO CLOUDS BELOW 12,000 FEET WITH NO
SIGNIFICANT WEATHER AND/OR OBSTRUCTIONS TO VISIBILITY. N/A MEANS
CURRENT SKY AND/OR WEATHER CONDITIONS ARE NOT AVAILABLE.

MNZ060>063-068>070-191900-
   Twin Cities Metro

CITY           SKY/WX    TMP DP  RH WIND       PRES   REMARKS
TWIN CITIES    LGT SNOW  22  20  92 N15       29.89F VSB 1   WCI   9
6HR MIN TEMP:  19; 6HR MAX TEMP:  22; 6HR PCP:  0.05;

ST PAUL        LGT SNOW  23  19  85 N15G28    29.91F VSB 3/4 WCI  10
CRYSTAL        LGT SNOW  19  15  84 N14       29.90F FOG     WCI   6
BLAINE         LGT SNOW  21  18  86 N14       29.92R WCI   8
LAKEVILLE      LGT SNOW  21  19  93 N17G23    29.85F WCI   7
EDEN PRAIRIE   LGT SNOW  20  16  84 N14G21    29.87F VSB 3/4 WCI   7
6HR MIN TEMP:  19; 6HR MAX TEMP:  21; 6HR PCP:  0.01;

SOUTH ST PAUL  LGT SNOW  24  20  87 N9G18     29.89F WCI  14
LAKE ELMO      LGT SNOW  23  21  93 N13G18    29.90F WCI  11
$$
MNZ001>005-007-008-013>017-022>024-027-028-191900-
   Northwest Minnesota

CITY           SKY/WX    TMP DP  RH WIND       PRES   REMARKS
BEMIDJI        FAIR       8  -2  63 NE17      30.12F WCI -10
HALLOCK        FAIR       3  -8  60 N7        30.31R WCI  -9
WARROAD        FAIR       3  -6  66 NE5       30.25F WCI  -6
THIEF RVR FALL FAIR       9  -5  53 N13       30.23R WCI  -7
CROOKSTON      FAIR       7  -4  61 NE13      30.25S WCI  -9
FOSSTON        FAIR       9   0  66 N12       30.18R WCI  -6
DETROIT LAKES  FAIR      14   1  57 N14       30.08F WCI  -1
MOORHEAD       FAIR       9   1  72 N21       30.16F WCI -11
PARK RAPIDS    FAIR      10  -1  61 NE15G25   30.05F WCI  -7
$$
MNZ006-009>011-018-025>026-191900-
   North Central Minnesota

CITY           SKY/WX    TMP DP  RH WIND       PRES   REMARKS
BAUDETTE       FAIR       3  -5  69 NW7       30.20F WCI  -9
FLAG ISLAND    FAIR       0  -9  65 N6        30.25F WCI -12
INTL FALLS     FAIR       7  -2  66 NE7       30.20F WCI  -5
6HR MIN TEMP:   2; 6HR MAX TEMP:   7;

WASKISH        CLOUDY     9   1  72 NE8       30.18F WCI  -4
BIG FORK       FAIR      10   0  61 NE10G18   30.13F WCI  -3
LONGVILLE      FAIR      10   0  61 N7        30.08F WCI   0
GRAND RAPIDS   CLOUDY     9   0  67 N9        30.09F WCI  -4
CRANE LAKE     FAIR       7  -2  66 N5        30.21S WCI  -2
ORR            FAIR       9  -2  61 NE3       30.13F
COOK             N/A      9   0  66 NE9       30.14F WCI  -5
WALKER         FAIR      10  -2  59 NE13      30.09F WCI  -6
$$
MNZ012-019>021-037-191900-
   Northeast Minnesota

CITY           SKY/WX    TMP DP  RH WIND       PRES   REMARKS
DULUTH         LGT SNOW  11   5  77 NE13      30.03S VSB 1   WCI  -4
6HR MIN TEMP:   8; 6HR MAX TEMP:  11; 6HR PCP:  0.07;

ELY            FAIR       7   0  72 NE7       30.12F WCI  -5
HIBBING        CLOUDY     8  -1  66 NE10      30.09F WCI  -6
EVELETH        FAIR     N/A N/A N/A NE14      30.10F
DULUTH HARBOR  LGT SNOW  18  12  79 NE22G33   30.10R VSB 3/4 WCI   0
TWO HARBORS    LGT SNOW  16   9  73 NE8G16    30.06S WCI   5
G MARAIS ARPRT FAIR       7  -4  61 N14       30.05F WCI -10
$$
MNZ029>031-032-039>041-046>048-054>057-064-191900-
   West Central Minnesota

CITY           SKY/WX    TMP DP  RH WIND       PRES   REMARKS
FERGUS FALLS   FAIR      14   0  52 NE16G22   30.07S WCI  -2
WHEATON        FLURRIES  12   3  67 N21G26    30.08F WCI  -6
MORRIS         CLOUDY    16   9  73 N21       30.01S WCI  -2
ALEXANDRIA     LGT SNOW  13   7  77 NE16      29.99F WCI  -3
ELBOW LAKE     CLOUDY    12   3  68 NE17      30.04S WCI  -5
WADENA         FAIR      12   1  62 NE14G23   30.04R WCI  -3
GLENWOOD       FLURRIES  12   9  85 NE20      29.98S WCI  -6
APPLETON       CLOUDY    16  10  79 N20       30.00S WCI  -1
BENSON         CLOUDY    16   9  73 NE16G23   30.00S WCI   0
MADISON        FLURRIES  18  12  79 N20G25    30.00F WCI   1
WILLMAR        CLOUDY    16  10  79 N21       29.96F WCI  -2
$$
MNZ033>034-036-042>043-049>051-058-059-191900-
   Central Minnesota

CITY           SKY/WX    TMP DP  RH WIND       PRES   REMARKS
ST CLOUD       CLOUDY    16  10  77 N12G21    29.97S WCI   3
6HR MIN TEMP:  12; 6HR MAX TEMP:  16; 6HR PCP:  0.04;

SAUK CENTRE    CLOUDY    13   7  78 N14G21    29.99R WCI  -2
PAYNESVILLE    CLOUDY    16  12  85 NE16G25   29.96R WCI   0
AITKIN         FAIR       9   3  78 N13G20    30.04R WCI  -7
PINE RIVER     FAIR      10   1  67 NE15G26   30.07F WCI  -6
BRAINERD       LGT SNOW  12   4  70 NE15G24   30.03F WCI  -4
STAPLES        CLOUDY    10   3  72 NE12G20   30.02F WCI  -4
LONG PRAIRIE   FLURRIES  12   7  79 N12G21    30.00S WCI  -2
LITTLE FALLS   LGT SNOW  12   5  73 N5        30.02  VSB 3/4 WCI   4
LITCHFIELD     CLOUDY    18  14  86 NE17G25   29.92F WCI   2
BUFFALO        LGT SNOW  18  15  86 N10G20    29.93F VSB 3/4 WCI   7
MAPLE LAKE     LGT SNOW  19  16  86 NE10G21   29.93F WCI   8
HUTCHINSON     LGT SNOW  19  16  86 N18G25    29.89F WCI   4
$$
MNZ037-044-045-052-053-191900-
   East Central Minnesota

CITY           SKY/WX    TMP DP  RH WIND       PRES   REMARKS
PRINCETON      LGT SNOW  18  12  79 N15G22    29.96F WCI   3
MORA           LGT SNOW  16  10  79 NE6       30.01R WCI   7
CAMBRIDGE      LGT SNOW  19  10  68 N9G20     29.96F WCI   9
RUSH CITY      LGT SNOW  19  15  82 N9G16     29.98S WCI   8
MOOSE LAKE     LGT SNOW  14   9  79 NE15      30.02S VSB 1   WCI  -1
HINCKLEY       LGT SNOW  18  12  79 N9        30.00R VSB 1   WCI   6
CLOQUET        LGT SNOW  10   5  79 N9        30.03F WCI  -2
MCGREGOR       CLOUDY    12   5  73 N13G18    30.04F WCI  -3
$$
MNZ071>073-080-081-089-090-097-098-191900-
   Southwest Minnesota

CITY           SKY/WX    TMP DP  RH WIND       PRES   REMARKS
MONTEVIDEO     CLOUDY    16  10  79 NE20      29.96F WCI  -1
GRANITE FALLS  CLOUDY    19  13  78 N14G28    29.97S WCI   6
CANBY          FLURRIES  15  11  83 N17       29.98F WCI  -1
MARSHALL       FLURRIES  15  11  83 N18       29.93S WCI  -2
REDWOOD FALLS  CLOUDY    18  13  80 NE13G23   29.92R WCI   5
OLIVIA         CLOUDY    21  14  73 NE18G25   29.92R WCI   6
PIPESTONE      LGT SNOW  14  10  85 NE22G29   29.85S WCI  -4
WINDOM         CLOUDY    18   3  53 N18       29.84R HAZE    WCI   2
WORTHINGTON    LGT SNOW  16  12  84 N20G28    29.83R FOG     WCI  -1
JACKSON        CLOUDY    18  14  86 N17       29.82R FOG     WCI   2
TRACY          LGT SNOW  17  15  90 N18       29.90R WCI   1
SLAYTON        LGT SNOW  15  12  89 N20G26    29.86R WCI  -2
$$
MNZ065>067-074>077-082>085-091>093-191900-
   South Central Minnesota

CITY           SKY/WX    TMP DP  RH WIND       PRES   REMARKS
MANKATO        LGT SNOW  21  18  88 N21G29    29.83S FOG     WCI   5
NEW ULM        LGT SNOW  18  14  86 NE16G25   29.85F WCI   3
ST JAMES       CLOUDY    19  18  93 N14       29.85F WCI   6
FAIRMONT       MIX PCPN  20  18  92 MISG      29.80F FOG
GLENCOE        LGT SNOW  19  17  89 N10G22    29.88F WCI   8
FARIBAULT      MIX PCPN  25  21  86 N14G22    29.82F WCI  13
OWATONNA       MIX PCPN  25  21  86 N15G21    29.79F WCI  12
WASECA         LGT SNOW  25  23  93 NE17      29.79F WCI  11
ALBERT LEA     MIX PCPN  27  27 100 NE12G18   29.73F WCI  16
$$
MNZ078>079-086>088-094>096-191900-
   Southeast Minnesota

CITY           SKY/WX    TMP DP  RH WIND       PRES   REMARKS
ROCHESTER      MIX PCPN  29  28  96 NE17      29.75F FOG     WCI  17
6HR MIN TEMP:  27; 6HR MAX TEMP:  29; 6HR PCP:  0.06;

RED WING       LGT SNOW  27  21  80 E8        29.85F WCI  18
STANTON        LGT SNOW  25  22  87 NE16G24   29.83F WCI  13
DODGE CENTER   MIX PCPN  27  25  93 NE14      29.77F WCI  15
WINONA         MIX PCPN  32  30  93 NE7       29.80F WCI  26
AUSTIN         MIX PCPN  30  28  93 NE8       29.74F WCI  23
PRESTON        CLOUDY    31  30  94 NE13G21   29.75F FOG     WCI  21
$$
ABBREVIATIONS USED IN REMARKS
   TC - TEMPERATURES IN CELSIUS
  WCI - WIND CHILL INDEX
   HX - HEAT INDEX
  VSB - VISIBILITY
$$




USA.gov is the U.S. government's official web portal to all federal, state and local government web resources and services.